Date,TemperatureHighF,TemperatureAvgF,TemperatureLowF,DewpointHighF,DewpointAvgF,DewpointLowF,HumidityHigh,HumidityAvg,HumidityLow,PressureMaxIn,PressureMinIn,WindSpeedMaxMPH,WindSpeedAvgMPH,GustSpeedMaxMPH,PrecipitationSumIn
2013-1-1,44,40,37,31,28,23,69,61,50,30.02,29.90,4,0,0,0.00
2013-1-2,39,33,26,29,19,13,71,57,41,30.24,29.99,9,1,0,0.00
2013-1-3,36,29,23,22,18,15,84,64,47,30.26,30.16,5,0,0,0.00
2013-1-4,43,36,26,23,20,19,79,55,41,30.21,30.09,12,3,17,0.00
2013-1-5,43,36,29,30,23,19,78,59,44,30.38,30.14,10,1,0,0.00
2013-1-6,51,42,30,33,29,26,92,62,39,30.20,30.02,6,1,0,0.00
2013-1-7,46,38,28,30,26,23,85,65,46,30.44,30.14,13,1,0,0.00
2013-1-8,54,40,27,38,31,24,93,72,42,30.43,30.37,10,1,13,0.00
2013-1-9,53,42,30,44,37,29,97,82,45,30.39,30.23,10,1,0,0.00
2013-1-10,53,46,38,33,30,26,74,55,38,30.59,30.37,7,1,0,0.00
2013-1-11,44,40,32,43,36,29,100,88,74,30.51,30.10,2,0,0,0.04
2013-1-12,55,45,40,48,44,39,100,94,78,30.17,30.10,4,0,3,0.00
2013-1-13,49,45,41,49,45,41,100,100,99,30.14,29.99,6,1,9,0.02
2013-1-14,61,55,41,61,50,36,100,85,59,30.29,29.95,10,2,0,0.10
2013-1-15,41,39,36,40,38,35,98,96,90,30.35,30.15,5,1,0,0.65
2013-1-16,41,38,35,41,38,35,99,99,97,30.16,29.87,10,1,0,0.32
2013-1-17,44,41,38,41,35,30,99,82,60,30.13,29.98,5,0,0,0.03
2013-1-18,38,34,28,31,18,7,76,53,31,30.51,30.03,12,2,0,0.00
2013-1-19,54,41,30,29,26,17,73,56,36,30.44,29.98,15,4,0,0.00
2013-1-20,59,47,34,32,24,11,60,42,23,30.09,29.82,19,4,0,0.00
2013-1-21,42,35,30,34,21,11,80,57,43,30.11,29.80,12,2,0,0.00
2013-1-22,30,21,17,12,-2,-8,50,36,29,30.30,29.91,19,6,0,0.00
2013-1-23,25,20,11,5,0,-4,68,43,31,30.36,30.16,15,2,0,0.00
2013-1-24,26,21,16,15,7,-2,87,59,31,30.52,30.11,16,2,0,0.02
2013-1-25,23,19,15,18,8,1,90,64,40,30.52,30.08,4,0,3,0.00
2013-1-26,33,26,21,19,18,16,89,72,55,30.44,30.09,12,1,2,0.03
2013-1-27,37,27,18,23,19,15,90,74,46,30.61,30.44,5,0,5,0.00
2013-1-28,47,36,30,45,33,22,99,88,71,30.52,30.04,11,2,0,0.14
2013-1-29,63,50,40,52,46,39,100,84,64,30.13,30.00,10,2,0,0.00
2013-1-30,71,57,43,62,54,42,100,89,72,29.99,29.27,15,4,0,0.46
2013-1-31,61,44,28,61,28,12,100,56,34,29.93,29.15,20,8,0,0.62
2013-2-1,33,26,20,28,11,2,93,54,38,30.39,29.82,23,5,13,0.00
2013-2-2,31,24,16,26,11,3,93,60,36,30.39,30.02,6,1,0,0.00
2013-2-3,34,28,21,29,25,19,96,88,62,30.01,29.84,11,0,0,0.02
2013-2-4,35,30,22,24,15,10,69,55,45,30.12,29.91,13,2,0,0.00
2013-2-5,39,34,29,30,27,23,91,76,64,29.94,29.86,3,0,0,0.00
2013-2-6,45,36,27,32,27,22,92,71,47,30.37,29.94,13,2,0,0.00
2013-2-7,39,32,25,31,25,21,87,75,58,30.47,30.21,6,0,0,0.00
2013-2-8,42,38,33,41,34,23,99,88,60,30.21,29.72,20,4,0,0.42
2013-2-9,39,33,29,23,17,14,64,52,39,30.39,29.88,21,6,23,0.00
2013-2-10,40,32,20,33,18,9,86,60,30,30.50,30.27,10,2,0,0.00
2013-2-11,55,46,37,52,44,33,100,94,77,30.26,29.70,11,3,0,0.38
2013-2-12,56,47,38,39,29,26,76,52,33,29.99,29.80,16,3,0,0.01
2013-2-13,46,38,31,36,31,27,98,78,57,29.96,29.65,5,0,0,0.21
2013-2-14,47,38,32,34,31,25,98,76,42,30.03,29.76,6,1,0,0.02
2013-2-15,55,44,36,40,35,31,92,72,49,30.04,29.90,13,2,5,0.07
2013-2-16,37,35,32,36,31,18,99,87,56,30.02,29.81,9,1,0,0.11
2013-2-17,32,28,24,18,11,5,63,49,35,30.20,29.81,17,6,11,0.00
2013-2-18,40,30,20,27,11,4,74,47,27,30.38,30.19,14,3,0,0.00
2013-2-19,45,40,34,43,31,19,93,71,53,30.18,29.73,13,3,0,0.09
2013-2-20,39,33,25,23,14,8,53,47,38,30.16,29.84,15,6,0,0.00
2013-2-21,38,30,23,16,13,9,59,50,39,30.33,30.13,15,4,0,0.00
2013-2-22,33,31,29,32,23,15,97,74,56,30.40,30.23,8,0,0,0.06
2013-2-23,45,39,32,45,39,32,100,99,97,30.22,29.80,5,1,0,0.12
2013-2-24,51,43,33,44,32,20,100,71,37,30.10,29.79,20,5,9,0.00
2013-2-25,46,38,27,28,24,19,82,58,44,30.23,30.10,10,1,11,0.00
2013-2-26,46,37,27,46,34,23,100,90,74,30.24,29.59,16,1,0,0.73
2013-2-27,55,48,41,47,40,33,100,78,53,29.70,29.49,14,2,0,0.02
2013-2-28,48,43,40,38,30,23,89,62,38,29.72,29.62,17,4,7,0.01
2013-3-1,44,41,38,31,28,24,72,61,51,29.87,29.71,13,3,0,0.00
2013-3-2,38,34,30,26,22,19,71,61,51,29.87,29.80,12,3,0,0.00
2013-3-3,40,34,28,21,19,17,71,55,45,29.90,29.78,15,4,17,0.00
2013-3-4,42,33,28,20,16,13,60,51,37,30.03,29.90,17,6,19,0.00
2013-3-5,45,37,26,31,22,16,77,56,31,30.09,29.84,9,1,0,0.00
2013-3-6,40,37,33,37,35,29,98,91,67,29.95,29.58,19,5,0,1.47
2013-3-7,49,43,36,31,28,24,73,57,40,30.13,29.96,18,5,16,0.00
2013-3-8,47,42,32,29,26,22,76,56,44,30.25,30.10,21,5,0,0.00
2013-3-9,60,45,34,27,23,19,63,44,21,30.33,30.24,10,2,0,0.00
2013-3-10,57,45,32,41,27,18,91,55,22,30.34,30.25,15,4,0,0.00
2013-3-11,56,48,42,49,45,41,99,87,75,30.27,29.99,14,4,0,0.00
2013-3-12,59,51,42,56,45,31,100,83,57,29.99,29.71,16,6,0,0.79
2013-3-13,50,41,31,32,26,18,87,58,31,30.05,29.88,19,4,0,0.00
2013-3-14,45,38,32,19,16,14,57,42,30,30.11,30.01,24,6,0,0.00
2013-3-15,56,43,29,31,23,16,69,47,30,30.09,29.79,13,2,0,0.00
2013-3-16,54,45,37,44,36,30,84,71,56,29.92,29.65,12,2,0,0.00
2013-3-17,41,38,34,33,30,24,90,75,59,30.28,29.91,6,1,0,0.00
2013-3-18,39,37,33,38,30,20,99,78,52,30.33,29.87,5,1,4,0.29
2013-3-19,58,46,37,42,32,10,100,67,17,29.89,29.71,15,4,0,0.05
2013-3-20,52,44,32,32,17,11,72,36,23,29.99,29.77,15,4,19,0.00
2013-3-21,44,35,29,25,14,6,71,44,31,29.89,29.73,15,5,17,0.00
2013-3-22,46,36,28,19,16,9,55,44,32,30.00,29.88,15,4,17,0.00
2013-3-23,51,40,27,26,22,19,75,51,31,30.03,29.91,15,2,0,0.00
2013-3-24,42,36,28,33,25,21,97,66,47,30.00,29.68,9,1,0,0.02
2013-3-25,36,34,32,36,33,32,99,97,96,29.69,29.50,7,1,0,0.67
2013-3-26,48,40,31,36,31,25,99,72,42,29.96,29.69,9,2,6,0.09
2013-3-27,50,43,38,31,28,23,69,56,41,30.10,29.96,17,5,0,0.00
2013-3-28,48,43,36,32,28,25,71,57,40,30.21,30.08,18,4,0,0.00
2013-3-29,55,47,38,30,28,25,69,50,34,30.25,30.13,11,2,0,0.00
2013-3-30,58,46,33,38,30,27,83,58,34,30.22,30.11,7,1,0,0.00
2013-3-31,52,47,40,51,43,32,99,87,70,30.13,29.74,11,3,0,0.02
2013-4-1,65,51,40,49,37,21,100,64,36,29.97,29.70,19,4,14,0.01
2013-4-2,48,40,30,20,15,9,66,38,23,30.16,29.97,16,4,24,0.00
2013-4-3,50,41,28,19,15,10,63,36,24,30.38,30.17,20,3,0,0.00
2013-4-4,47,38,24,35,22,15,86,54,30,30.42,30.11,10,1,7,0.05
2013-4-5,64,50,38,40,32,21,97,58,25,30.11,29.80,14,3,15,0.33
2013-4-6,51,46,38,36,23,17,72,42,27,30.33,30.03,9,2,0,0.00
2013-4-7,63,53,38,47,41,29,90,67,47,30.30,30.00,12,4,16,0.00
2013-4-8,74,64,55,54,48,42,76,56,43,30.07,29.97,12,3,0,0.00
2013-4-9,84,72,62,57,54,52,75,53,34,30.06,29.92,13,3,14,0.00
2013-4-10,90,77,65,59,56,54,68,49,31,29.96,29.78,10,2,0,0.00
2013-4-11,79,68,54,64,58,52,94,74,48,29.88,29.75,11,2,13,0.00
2013-4-12,65,56,51,65,56,51,100,98,93,29.84,29.59,9,1,6,0.58
2013-4-13,64,54,42,53,45,39,100,73,42,29.94,29.74,16,2,0,0.00
2013-4-14,66,54,40,48,42,35,100,68,32,30.13,29.94,10,1,0,0.00
2013-4-15,60,56,53,52,49,47,94,78,65,30.30,30.12,10,1,0,0.01
2013-4-16,69,60,51,58,54,49,95,81,67,30.32,30.12,13,3,0,0.00
2013-4-17,75,64,57,63,58,55,99,81,64,30.24,30.11,11,1,0,0.00
2013-4-18,72,63,58,63,58,54,99,86,69,30.24,30.03,18,6,0,0.03
2013-4-19,76,64,53,66,61,51,99,89,67,30.02,29.60,14,4,0,0.63
2013-4-20,58,51,47,51,35,27,96,57,32,30.33,29.77,17,3,0,0.06
2013-4-21,52,45,40,36,27,21,73,50,37,30.60,30.33,9,1,0,0.00
2013-4-22,55,46,35,42,37,32,90,71,57,30.59,30.41,9,1,0,0.00
2013-4-23,60,50,43,46,42,40,95,76,56,30.41,30.13,10,2,0,0.00
2013-4-24,71,58,43,58,52,42,100,80,54,30.13,29.80,16,3,0,0.00
2013-4-25,68,54,46,56,38,28,84,56,27,30.30,29.94,13,2,0,0.01
2013-4-26,65,54,42,43,39,32,90,61,33,30.44,30.30,7,1,0,0.00
2013-4-27,67,55,40,50,39,31,97,62,27,30.42,30.30,6,1,0,0.00
2013-4-28,66,57,43,47,41,33,94,58,31,30.30,30.16,19,3,13,0.00
2013-4-29,59,56,54,58,54,45,100,95,62,30.17,30.06,12,2,17,0.49
2013-4-30,58,56,52,58,55,50,100,99,86,30.28,30.08,6,0,16,0.31
2013-5-1,67,56,46,50,45,38,95,69,35,30.43,30.28,11,1,9,0.00
2013-5-2,66,28,52,53,-33,-100,90,30,50,30.44,30.32,9,-551,0,0.00
2013-5-3,63,38,48,48,-1,-100,84,47,48,30.38,30.31,9,-308,13,0.00
2013-5-4,66,53,48,49,45,41,92,77,45,30.34,30.19,12,1,6,0.00
2013-5-5,62,52,45,48,44,39,91,74,56,30.25,30.16,6,1,0,0.00
2013-5-6,62,55,47,58,53,45,98,92,86,30.19,30.06,7,1,0,0.00
2013-5-7,63,60,58,63,60,57,100,100,99,30.07,29.93,6,1,0,0.80
2013-5-8,68,60,56,61,58,56,100,93,70,30.00,29.94,7,1,0,0.07
2013-5-9,74,62,52,62,57,52,100,87,61,29.99,29.92,7,1,0,0.01
2013-5-10,80,68,54,64,60,54,100,77,50,30.01,29.88,11,2,0,0.17
2013-5-11,78,68,63,67,64,61,100,87,59,29.92,29.70,9,1,3,0.72
2013-5-12,63,60,52,63,43,28,100,60,30,30.03,29.73,18,4,0,0.77
2013-5-13,59,51,40,38,31,24,89,50,27,30.16,30.03,16,3,10,0.00
2013-5-14,63,51,35,49,36,28,94,60,31,30.21,30.06,13,1,0,0.00
2013-5-15,78,66,56,65,56,47,93,72,57,30.06,29.68,9,2,9,0.00
2013-5-16,83,75,67,64,61,58,76,62,46,29.90,29.73,16,2,0,0.00
2013-5-17,77,70,58,60,53,42,95,59,33,30.15,29.90,7,1,0,0.00
2013-5-18,65,62,59,59,56,51,98,82,62,30.24,30.15,10,2,0,0.01
2013-5-19,72,65,60,67,64,59,100,96,83,30.21,30.09,7,0,0,0.03
2013-5-20,80,71,65,70,68,65,100,91,68,30.12,29.98,7,1,0,0.00
2013-5-21,83,72,66,72,69,66,100,88,67,30.00,29.88,9,1,5,0.00
2013-5-22,85,76,67,75,71,65,100,86,69,29.93,29.84,10,2,0,0.00
2013-5-23,79,73,68,72,69,65,98,87,69,29.91,29.75,14,2,0,0.03
2013-5-24,67,58,50,65,51,34,100,79,53,30.13,29.72,14,4,0,0.03
2013-5-25,65,55,45,40,36,33,67,50,34,30.16,30.07,15,5,0,0.00
2013-5-26,71,59,48,45,39,35,79,49,28,30.21,30.11,12,2,0,0.00
2013-5-27,71,60,46,54,46,37,90,62,35,30.28,30.18,4,0,0,0.00
2013-5-28,78,68,58,70,63,54,99,85,71,30.20,30.07,5,1,0,0.14
2013-5-29,88,77,66,72,68,63,98,76,43,30.12,30.07,10,2,0,0.00
2013-5-30,88,79,69,75,69,64,93,72,56,30.18,30.10,9,1,0,0.00
2013-5-31,90,79,67,70,67,64,93,70,45,30.15,30.03,9,1,4,0.00
2013-6-1,90,80,70,72,68,65,85,68,48,30.04,29.92,8,1,0,0.00
2013-6-2,87,78,69,72,69,65,100,75,61,29.93,29.83,11,2,0,2.01
2013-6-3,78,71,67,72,69,66,100,94,71,29.92,29.81,10,1,16,0.55
2013-6-4,75,66,58,65,52,44,93,64,36,30.12,29.93,8,1,0,0.00
2013-6-5,77,66,53,62,56,51,99,73,42,30.18,30.06,10,1,0,0.00
2013-6-6,73,67,59,67,61,54,99,81,68,30.10,29.87,14,2,0,0.29
2013-6-7,71,69,66,71,69,66,100,100,99,29.87,29.54,8,2,6,2.05
2013-6-8,78,69,64,68,65,62,100,88,60,30.08,29.66,6,1,3,0.06
2013-6-9,79,72,63,70,67,63,100,85,67,30.20,30.09,10,1,0,0.00
2013-6-10,80,73,69,76,72,68,100,96,86,30.11,29.80,10,2,0,0.89
2013-6-11,83,75,68,71,67,64,100,79,57,29.84,29.75,13,3,0,0.00
2013-6-12,86,77,67,74,68,64,90,76,57,29.86,29.78,11,1,0,0.00
2013-6-13,87,75,70,75,69,59,96,82,54,29.81,29.44,17,3,10,0.27
2013-6-14,77,68,59,60,57,52,96,70,46,29.95,29.56,12,3,0,0.05
2013-6-15,81,71,59,63,59,54,95,68,39,30.07,29.96,9,1,0,0.00
2013-6-16,84,73,63,73,66,60,97,80,55,30.02,29.87,9,1,0,0.00
2013-6-17,83,77,70,74,71,67,95,83,65,29.96,29.87,11,1,0,0.02
2013-6-18,76,70,62,74,70,62,100,97,90,29.91,29.79,6,0,0,0.69
2013-6-19,76,68,62,66,62,58,100,82,55,30.15,29.87,7,1,1,0.01
2013-6-20,78,70,60,64,60,55,99,73,49,30.28,30.16,10,1,0,0.00
2013-6-21,78,69,56,66,59,50,98,74,38,30.31,30.24,9,1,4,0.00
2013-6-22,82,73,61,70,66,61,100,79,60,30.26,30.15,9,1,0,0.00
2013-6-23,82,73,66,77,71,66,100,93,78,30.20,30.07,3,0,0,0.12
2013-6-24,90,77,70,78,73,69,100,87,57,30.12,30.01,5,0,12,0.01
2013-6-25,91,80,69,76,72,64,100,78,50,30.04,29.89,10,1,12,0.00
2013-6-26,89,77,68,79,72,66,99,84,61,29.96,29.80,6,0,0,0.30
2013-6-27,82,75,69,76,72,69,100,92,79,29.82,29.61,10,2,10,0.04
2013-6-28,87,75,70,76,72,69,100,90,62,29.63,29.49,7,1,4,1.02
2013-6-29,86,77,67,76,70,63,100,83,50,29.69,29.52,13,1,6,0.01
2013-6-30,83,77,72,77,75,69,99,92,77,29.85,29.69,15,1,0,0.18
2013-7-1,81,76,72,76,74,71,98,92,83,30.00,29.84,11,2,0,0.01
2013-7-2,82,76,72,75,74,71,98,92,79,30.18,30.00,7,2,8,0.34
2013-7-3,85,77,71,78,74,71,100,90,72,30.24,30.18,12,1,1,0.06
2013-7-4,88,79,74,77,75,73,100,86,63,30.26,30.18,10,2,0,0.00
2013-7-5,89,81,74,76,74,72,96,80,61,30.23,30.13,9,1,5,0.00
2013-7-6,90,82,75,77,75,72,95,79,60,30.18,30.07,7,1,0,0.00
2013-7-7,90,80,71,77,73,69,95,81,63,30.11,29.99,10,1,0,0.00
2013-7-8,85,76,70,74,71,68,100,85,58,30.10,30.03,5,1,0,0.02
2013-7-9,84,78,72,77,74,70,98,87,68,30.10,30.00,4,0,0,0.00
2013-7-10,88,79,73,79,75,72,98,89,68,30.02,29.86,18,1,0,0.09
2013-7-11,83,76,73,75,73,70,100,90,66,29.92,29.84,6,1,0,0.07
2013-7-12,73,70,67,73,70,67,100,100,98,30.01,29.87,5,1,0,1.93
2013-7-13,85,76,68,76,72,68,100,90,73,30.27,30.01,6,1,0,0.10
2013-7-14,86,80,73,78,75,72,100,87,68,30.34,30.27,5,1,0,0.01
2013-7-15,91,80,72,80,75,72,100,84,56,30.30,30.18,5,0,0,0.00
2013-7-16,92,83,76,78,75,70,98,78,52,30.22,30.15,10,1,0,0.00
2013-7-17,92,82,72,78,75,70,100,80,50,30.20,30.09,6,0,0,0.00
2013-7-18,95,84,75,82,77,74,97,82,55,30.11,29.99,9,1,0,0.00
2013-7-19,94,86,78,81,78,76,95,79,60,30.01,29.87,5,1,1,0.00
2013-7-20,92,83,78,79,77,75,94,81,59,29.89,29.79,6,1,0,0.00
2013-7-21,90,79,73,77,74,71,99,85,58,29.93,29.87,6,0,2,0.01
2013-7-22,86,79,72,78,75,72,100,88,71,29.92,29.76,7,1,0,0.01
2013-7-23,86,78,72,76,73,69,100,86,61,29.76,29.63,13,1,0,0.52
2013-7-24,82,76,70,71,69,60,97,79,65,29.90,29.67,4,0,0,0.00
2013-7-25,76,70,63,67,61,55,97,75,64,30.02,29.90,6,1,0,0.00
2013-7-26,80,72,64,67,65,62,99,78,57,30.09,30.02,6,1,7,0.00
2013-7-27,82,75,69,72,69,66,94,82,68,30.06,29.93,12,2,0,0.00
2013-7-28,84,76,72,76,71,67,94,84,72,29.96,29.87,7,1,0,0.00
2013-7-29,82,74,63,71,59,53,96,64,39,30.15,29.97,7,1,10,0.00
2013-7-30,81,70,60,67,62,58,97,77,48,30.23,30.14,2,0,0,0.00
2013-7-31,80,72,64,71,67,63,99,84,60,30.15,30.03,6,0,0,0.00
2013-8-1,81,73,68,75,71,67,100,95,73,30.02,29.79,5,0,0,0.76
2013-8-2,85,75,67,71,68,66,100,82,55,29.96,29.84,4,0,0,0.01
2013-8-3,77,71,67,71,68,65,99,89,72,29.97,29.91,1,0,0,0.04
2013-8-4,80,70,60,67,61,55,99,76,44,30.02,29.89,12,1,0,0.01
2013-8-5,77,67,56,64,59,56,99,79,56,30.11,30.01,7,0,0,0.00
2013-8-6,73,68,64,69,66,61,97,91,84,30.09,30.01,7,1,9,0.02
2013-8-7,80,74,69,75,72,68,99,91,79,30.08,30.00,10,2,0,0.01
2013-8-8,85,78,74,77,74,72,95,87,73,30.04,29.98,12,2,0,0.00
2013-8-9,90,81,75,79,76,74,99,86,64,29.98,29.84,8,1,0,0.06
2013-8-10,82,75,68,75,70,63,100,85,55,30.08,29.93,4,0,0,0.02
2013-8-11,80,73,68,72,70,67,100,89,68,30.11,30.02,5,0,0,0.00
2013-8-12,85,76,68,75,72,68,100,88,65,30.03,29.92,5,0,0,0.00
2013-8-13,83,77,70,75,72,68,100,85,64,29.91,29.73,11,1,0,0.93
2013-8-14,74,66,58,70,56,50,100,73,51,30.09,29.79,8,1,5,0.00
2013-8-15,74,64,54,59,55,50,98,76,47,30.18,30.09,7,0,0,0.00
2013-8-16,76,66,54,65,58,52,100,80,46,30.20,30.13,4,0,0,0.00
2013-8-17,78,68,57,65,61,57,100,82,52,30.27,30.19,8,0,0,0.00
2013-8-18,72,67,63,68,65,62,100,92,78,30.22,30.15,6,0,0,0.17
2013-8-19,74,68,62,68,65,62,100,92,79,30.18,30.08,3,0,0,0.00
2013-8-20,83,73,62,73,69,62,100,89,68,30.16,30.08,11,1,5,0.00
2013-8-21,86,76,67,76,72,67,100,89,68,30.20,30.07,9,1,0,0.28
2013-8-22,86,77,71,75,71,68,100,84,55,30.10,29.92,5,1,0,0.07
2013-8-23,76,70,61,73,67,61,100,91,75,30.10,29.93,3,0,0,0.01
2013-8-24,81,69,60,66,62,59,98,81,51,30.34,30.11,7,0,0,0.01
2013-8-25,78,68,58,67,58,47,100,76,36,30.42,30.28,9,0,0,0.00
2013-8-26,86,72,61,68,63,58,90,75,45,30.30,30.01,6,0,0,0.00
2013-8-27,88,77,69,77,71,66,99,82,58,30.00,29.87,6,0,0,0.00
2013-8-28,82,74,71,76,73,70,100,96,74,29.90,29.82,4,0,0,0.09
2013-8-29,83,75,70,73,71,69,100,90,63,30.02,29.83,6,0,0,0.02
2013-8-30,84,74,65,74,70,65,100,87,63,30.04,29.90,7,1,0,0.00
2013-8-31,88,78,71,76,73,70,97,83,63,29.92,29.80,8,1,7,0.00
2013-9-1,86,78,69,77,73,69,100,86,69,29.85,29.76,6,1,0,0.00
2013-9-2,89,79,72,77,74,72,100,86,59,29.80,29.72,9,1,0,0.05
2013-9-3,82,76,64,73,66,58,98,73,49,29.95,29.72,7,1,0,0.00
2013-9-4,82,68,58,65,59,55,98,76,42,30.07,29.95,6,1,0,0.00
2013-9-5,82,71,61,64,61,53,99,72,49,30.12,30.00,13,1,0,0.00
2013-9-6,73,64,56,57,53,48,97,71,45,30.25,30.12,9,0,0,0.00
2013-9-7,79,66,52,65,59,53,100,81,51,30.14,29.93,9,1,0,0.00
2013-9-8,86,74,64,70,65,60,99,78,51,30.04,29.86,6,1,0,0.01
2013-9-9,77,70,61,70,60,51,92,72,56,30.20,30.04,7,1,0,0.00
2013-9-10,88,78,70,77,73,69,99,87,68,30.18,30.09,7,1,0,0.00
2013-9-11,91,80,72,78,74,72,99,83,56,30.14,30.01,7,1,0,0.00
2013-9-12,89,76,70,77,71,68,100,85,61,30.00,29.73,12,1,0,0.47
2013-9-13,76,70,62,70,61,51,100,77,43,29.91,29.69,12,1,0,0.01
2013-9-14,68,59,51,53,50,47,97,72,48,30.16,29.91,6,1,0,0.00
2013-9-15,74,61,47,60,54,47,100,79,45,30.23,30.09,10,1,0,0.01
2013-9-16,72,64,55,61,59,55,98,84,61,30.22,30.04,6,1,0,0.00
2013-9-17,65,57,48,57,47,38,99,72,38,30.42,30.23,11,1,1,0.00
2013-9-18,68,56,44,55,49,43,100,81,42,30.35,30.20,5,0,0,0.00
2013-9-19,74,62,49,60,55,49,100,82,57,30.20,30.08,7,1,0,0.00
2013-9-20,76,64,52,64,59,53,100,84,62,30.10,29.97,12,1,0,0.00
2013-9-21,76,67,59,68,63,58,100,87,68,29.98,29.68,13,2,0,0.72
2013-9-22,71,63,52,63,57,51,100,83,53,29.93,29.71,9,0,0,0.00
2013-9-23,66,55,48,51,48,43,100,79,50,30.08,29.93,7,1,0,0.00
2013-9-24,72,56,44,55,48,44,100,81,42,30.11,29.94,6,1,0,0.01
2013-9-25,73,58,48,58,52,46,100,83,41,29.97,29.88,5,0,0,0.01
2013-9-26,73,60,52,62,56,52,100,87,54,30.07,29.92,3,0,0,0.00
2013-9-27,71,61,54,63,57,55,100,87,61,30.24,30.07,5,0,0,0.00
2013-9-28,71,61,54,59,56,53,100,85,59,30.31,30.22,5,0,2,0.00
2013-9-29,72,60,50,62,55,50,100,87,49,30.21,30.06,4,0,0,0.00
2013-9-30,72,59,49,59,54,49,100,84,50,30.09,29.99,4,0,0,0.01
2013-10-1,79,65,54,66,60,54,99,86,55,30.07,29.97,6,0,0,0.00
2013-10-2,84,72,58,66,62,58,98,73,47,30.08,29.99,5,1,10,0.00
2013-10-3,81,69,59,69,65,59,100,86,63,30.11,30.04,2,0,5,0.00
2013-10-4,85,70,60,71,66,60,100,86,52,30.08,30.00,5,0,0,0.00
2013-10-5,85,74,65,71,68,65,99,83,59,30.08,30.00,4,0,0,0.01
2013-10-6,84,73,63,73,68,63,100,85,63,30.03,29.94,20,3,13,0.00
2013-10-7,78,67,55,73,65,53,99,93,78,30.04,29.81,21,2,0,0.88
2013-10-8,64,55,48,53,50,47,98,84,57,30.28,30.05,6,0,0,0.01
2013-10-9,60,58,52,54,52,49,99,82,72,30.30,30.18,10,2,0,0.04
2013-10-10,58,57,55,58,56,53,100,99,85,30.18,29.96,10,2,0,1.60
2013-10-11,63,61,58,63,61,58,100,100,100,29.98,29.91,7,2,0,2.89
2013-10-12,64,62,60,63,61,58,100,97,80,30.15,29.97,9,1,0,0.61
2013-10-13,64,61,58,61,59,55,100,93,82,30.32,30.15,9,1,1,0.09
2013-10-14,66,59,52,58,55,52,99,87,66,30.33,30.23,8,1,0,0.00
2013-10-15,69,58,48,59,53,48,100,85,50,30.24,30.08,4,0,0,0.00
2013-10-16,68,63,59,64,61,59,99,94,85,30.08,29.92,5,0,6,0.04
2013-10-17,74,66,60,67,63,59,100,92,73,29.91,29.73,10,1,0,0.00
2013-10-18,66,57,47,58,47,42,95,70,44,30.01,29.80,13,2,0,0.00
2013-10-19,63,55,46,60,52,45,100,90,62,30.00,29.79,10,1,0,0.01
2013-10-20,62,53,43,49,40,35,92,63,37,30.10,29.85,11,3,0,0.00
2013-10-21,65,54,41,50,44,40,98,74,42,30.15,29.97,13,2,0,0.00
2013-10-22,65,57,49,52,49,42,95,76,60,29.97,29.81,6,1,6,0.00
2013-10-23,56,49,44,47,42,35,98,77,49,29.87,29.64,6,1,0,0.13
2013-10-24,51,43,34,39,32,26,90,67,43,30.13,29.88,11,2,0,0.00
2013-10-25,54,44,35,34,32,31,90,66,45,30.32,30.13,11,2,0,0.00
2013-10-26,57,45,30,34,31,28,96,63,34,30.30,29.94,13,2,0,0.00
2013-10-27,59,49,38,40,36,33,92,65,40,30.15,29.94,11,2,0,0.00
2013-10-28,63,48,38,48,42,37,99,83,46,30.28,30.14,5,0,0,0.00
2013-10-29,62,49,40,50,44,40,100,85,56,30.37,30.28,5,0,0,0.00
2013-10-30,63,55,49,58,54,49,100,95,82,30.33,30.16,10,1,0,0.03
2013-10-31,70,61,52,62,58,52,100,91,72,30.20,29.81,9,2,0,0.00
2013-11-1,72,67,61,65,62,59,95,83,71,29.79,29.60,18,3,0,0.12
2013-11-2,69,59,50,60,49,40,97,73,45,29.87,29.63,5,0,0,0.04
2013-11-3,56,48,40,43,34,22,89,63,30,30.45,29.87,9,2,0,0.00
2013-11-4,44,38,31,32,26,22,89,63,42,30.64,30.45,11,1,0,0.00
2013-11-5,58,48,35,49,42,32,92,81,65,30.61,30.47,4,0,0,0.00
2013-11-6,64,57,47,54,51,46,98,81,64,30.47,30.07,13,2,9,0.00
2013-11-7,63,56,45,60,48,25,98,77,44,30.07,29.86,16,4,0,0.00
2013-11-8,51,42,32,30,25,21,77,53,32,30.32,30.07,17,3,0,0.00
2013-11-9,54,42,28,32,29,26,93,62,38,30.35,30.03,11,2,0,0.00
2013-11-10,63,51,42,37,30,27,64,47,29,30.21,29.93,17,4,0,0.00
2013-11-11,57,47,33,34,30,27,84,54,34,30.31,30.00,11,2,0,0.00
2013-11-12,52,42,32,38,24,12,72,50,35,30.39,29.97,13,3,0,0.00
2013-11-13,42,34,29,22,18,14,74,54,37,30.46,30.38,17,3,21,0.00
2013-11-14,58,40,25,31,22,19,83,54,23,30.40,30.22,7,0,0,0.00
2013-11-15,58,44,32,42,31,23,90,63,34,30.29,30.19,6,0,0,0.00
2013-11-16,52,49,44,51,48,41,100,97,87,30.33,30.24,3,0,0,0.26
2013-11-17,63,56,50,60,54,50,100,96,81,30.25,29.77,8,2,0,0.01
2013-11-18,69,60,51,64,41,24,100,57,22,29.91,29.68,13,4,16,0.19
2013-11-19,51,44,36,29,26,24,69,50,41,30.36,29.91,14,4,0,0.00
2013-11-20,44,37,30,31,26,23,90,67,51,30.57,30.36,10,1,0,0.00
2013-11-21,50,40,29,42,36,27,96,84,66,30.57,30.40,3,0,0,0.00
2013-11-22,63,54,44,54,49,41,94,84,69,30.39,29.99,9,1,9,0.00
2013-11-23,58,46,33,52,27,9,81,50,31,30.19,30.00,19,6,0,0.00
2013-11-24,32,28,24,10,6,2,52,40,30,30.52,30.19,18,6,0,0.00
2013-11-25,36,28,21,14,10,7,62,46,31,30.58,30.36,7,1,0,0.00
2013-11-26,57,39,33,57,30,12,100,76,38,30.36,29.53,9,1,0,1.41
2013-11-27,57,38,30,57,35,15,100,89,54,30.01,29.48,18,6,11,1.09
2013-11-28,37,31,27,24,16,11,81,55,35,30.49,30.02,18,4,0,0.00
2013-11-29,42,32,25,25,21,18,90,65,39,30.73,30.47,10,1,0,0.00
2013-11-30,38,30,23,27,22,19,88,74,51,30.72,30.39,3,0,0,0.00
2013-12-1,48,35,24,35,30,23,95,82,52,30.38,30.02,4,0,0,0.00
2013-12-2,46,42,38,40,36,35,95,83,66,30.02,29.87,3,0,6,0.00
2013-12-3,56,44,38,39,37,35,95,78,50,29.99,29.87,4,0,0,0.00
2013-12-4,53,47,38,51,45,38,100,94,80,30.09,29.99,6,1,0,0.00
2013-12-5,64,57,50,63,55,50,100,94,78,30.08,29.94,10,2,0,0.00
2013-12-6,65,52,38,64,51,38,98,96,92,30.16,29.88,9,2,0,0.51
2013-12-7,43,37,30,38,31,22,98,80,60,30.54,30.12,10,2,0,0.23
2013-12-8,32,30,28,32,25,20,97,82,64,30.58,30.29,7,1,0,0.05
2013-12-9,36,34,32,35,33,32,99,99,97,30.29,30.04,3,0,0,0.14
2013-12-10,36,33,27,35,30,20,100,90,57,30.23,29.98,13,1,0,0.22
2013-12-11,41,31,24,25,20,16,90,66,43,30.42,30.23,10,1,0,0.10
2013-12-12,30,27,23,24,14,7,90,59,38,30.44,30.25,11,2,0,0.00
2013-12-13,42,32,25,24,17,13,79,56,36,30.32,30.22,6,1,0,0.00
2013-12-14,41,36,29,40,32,23,99,86,71,30.33,29.69,6,1,0,0.69
2013-12-15,47,38,30,39,31,21,99,77,52,29.95,29.62,16,4,0,0.00
2013-12-16,36,33,29,26,23,18,81,67,55,30.20,29.95,7,1,0,0.00
2013-12-17,38,34,32,33,30,25,93,83,72,30.18,29.94,3,0,0,0.01
2013-12-18,40,33,27,30,24,19,93,73,47,30.24,29.98,13,2,0,0.02
2013-12-19,45,32,26,27,25,22,91,76,49,30.21,30.15,8,1,0,0.00
2013-12-21,70,63,56,61,53,46,84,71,59,30.01,29.91,13,5,0,0.00
2013-12-22,70,65,60,64,61,59,100,89,79,30.02,29.84,13,4,0,0.36
2013-12-23,64,54,40,64,52,28,100,90,62,30.22,29.93,19,3,0,0.57
2013-12-24,40,34,24,28,20,5,77,57,37,30.46,30.19,15,4,0,0.00
2013-12-25,31,25,19,19,12,8,77,60,44,30.58,30.41,9,1,0,0.00
2013-12-26,43,32,27,24,22,19,82,70,44,30.40,30.23,5,1,0,0.00
2013-12-27,49,37,25,27,21,17,79,55,32,30.43,30.32,7,1,5,0.00
2013-12-28,57,44,31,28,25,22,71,49,31,30.33,30.12,9,2,0,0.00
2013-12-29,49,46,41,49,40,27,100,85,43,30.11,29.52,15,3,0,1.01
2013-12-30,46,39,32,42,32,20,98,77,60,30.19,29.82,11,2,0,0.00
2013-12-31,44,35,28,29,21,16,72,59,41,30.34,30.10,14,3,0,0.00
2014-1-1,42,34,25,36,27,17,96,76,58,30.43,30.15,7,1,0,0.00
2014-1-2,37,33,29,36,32,28,100,98,95,30.13,29.59,7,1,0,0.02